{"data":{"norad_id":48319,"epoch":"2026-05-25T04:16:02.180064Z","epoch_age_seconds":62833,"freshness":"FRESH","line1":"1 48319U 21036AV  26145.17780301  .00000293  00000+0  21206-4 0  9990","line2":"2 48319  53.1592 105.3903 0001353  97.6867 262.4288 15.31701353279759","mean_motion":15.31701353,"eccentricity":0.0001353,"inclination_deg":53.1592,"raan_deg":105.3903,"arg_perigee_deg":97.6867,"mean_anomaly_deg":262.4288,"bstar":2.1206e-5,"rev_number":27975,"period_min":94.013104916282,"perigee_km":469.80930949426,"apogee_km":471.66261451778,"semimajor_km":6848.872962006,"source":"CELESTRAK","updated_at":"2026-05-25T13:38:16.681125Z"}}